Theta_e
290 287 287 287 290 290 288 290 292 289 286 285 284 284 283 284 285 285 285 287 287 288 287 289 288 286 288 288 287 288 288 288 287 286 286 286 286 286 286 286 286 287 286 289 289 289 289 289 289 290 291 291 292 293 293 294 294 295 296 298 297 299 300 301 301 300 300 298 296 295 294 293 294 293 292 291 291 291 292 292 293 294 294 295 296 298
291 287 287 290 290 288 290 289 287 285 286 287 286 285 284 283 285 287 288 287 286 288 284 284 286 287 288 286 286 287 287 286 286 286 286 286 285 286 285 285 286 286 288 288 288 288 288 288 289 289 290 290 290 291 292 292 293 294 294 295 296 297 297 298 299 299 298 297 296 294 292 291 290 290 289 289 289 289 290 290 290 291 292 293 294 295
286 286 290 291 287 285 285 286 286 287 287 285 285 284 284 284 284 286 286 286 286 287 286 284 286 288 287 285 286 286 285 286 286 286 286 285 284 284 285 285 285 285 286 286 286 287 287 287 288 288 288 289 289 290 290 291 292 293 293 294 294 295 296 296 296 296 296 296 296 294 292 290 288 289 289 289 289 289 289 289 289 289 290 290 291 292
285 285 290 289 286 288 285 283 285 285 285 284 284 284 284 284 286 284 286 285 287 286 285 284 285 288 285 285 285 286 286 285 285 285 285 285 284 283 284 284 284 284 284 285 285 285 286 286 287 287 287 287 288 288 289 290 290 291 292 292 293 293 294 295 295 294 294 293 292 292 291 290 289 288 289 289 289 288 288 287 288 289 289 289 289 290
288 289 287 288 287 288 288 284 285 284 285 283 285 284 284 285 285 286 286 285 284 286 283 285 285 285 283 285 284 285 286 285 285 285 285 285 285 285 285 285 285 283 284 284 284 285 285 285 285 285 286 287 286 287 287 288 289 289 290 291 291 291 291 292 293 293 293 292 291 290 290 290 289 289 288 288 287 287 287 287 287 287 288 288 288 289
287 289 286 287 285 286 287 284 285 286 283 282 283 286 287 286 286 284 284 286 284 283 284 285 282 280 281 281 283 284 284 284 284 283 283 284 284 284 284 284 284 285 284 283 283 284 284 284 285 285 285 285 285 285 286 287 288 288 289 289 290 290 290 290 290 291 291 291 290 290 289 286 285 284 285 284 284 285 285 285 287 287 288 288 288 288
288 289 290 290 287 285 286 286 284 288 284 284 286 285 288 286 285 285 284 286 281 281 285 283 282 277 282 283 283 283 283 283 283 283 283 283 284 283 283 283 283 283 284 284 284 284 284 284 284 284 284 285 285 285 286 286 286 287 288 288 288 288 288 289 289 290 289 288 287 286 286 286 285 284 284 285 286 286 286 287 286 287 287 287 287 287
287 288 287 287 286 285 284 284 284 287 285 283 284 283 285 285 285 284 284 285 282 282 283 283 284 279 279 286 283 283 282 282 282 283 283 283 283 283 283 283 283 283 283 283 283 283 283 283 283 283 283 284 284 284 285 285 286 286 286 287 287 287 287 288 288 288 288 287 287 286 286 286 285 285 284 285 285 286 286 286 286 286 286 287 287 287
288 286 286 286 286 284 286 286 285 288 286 283 285 283 284 285 284 283 284 283 281 283 281 280 284 282 278 282 281 282 282 281 282 282 283 283 283 283 283 283 283 283 283 283 283 282 283 283 283 283 283 283 284 284 284 284 285 286 286 286 286 286 286 287 288 287 288 288 287 286 286 285 286 286 286 286 286 286 286 285 286 286 286 286 287 287
286 288 287 289 286 285 285 284 285 288 287 285 283 283 282 282 282 282 281 283 280 280 275 280 283 279 279 281 282 283 282 282 282 283 283 283 283 283 282 283 283 283 283 283 282 282 282 283 283 283 283 283 283 284 285 284 285 285 286 286 285 285 286 287 287 287 287 287 287 286 286 285 285 285 286 286 286 286 286 285 285 286 286 286 286 286
287 289 289 287 287 287 284 283 284 285 285 284 284 285 283 281 280 279 279 278 277 273 278 281 281 283 279 282 284 283 284 284 283 282 283 283 283 283 282 283 283 282 282 282 282 282 282 282 282 282 282 283 283 284 284 284 284 285 285 285 285 285 286 286 286 286 286 287 287 286 286 286 285 286 286 285 285 285 286 285 285 285 286 286 286 286
287 286 287 287 287 284 285 285 283 283 283 285 286 281 285 282 279 276 270 275 273 272 275 278 280 282 277 280 281 282 282 282 285 283 282 282 282 283 283 282 282 282 282 282 281 281 281 282 282 282 282 282 283 283 284 284 284 285 285 285 284 285 285 286 286 286 286 286 286 286 286 285 286 286 285 285 284 285 285 285 285 285 285 285 285 285
285 285 285 287 288 288 284 284 284 284 285 284 283 285 278 274 270 273 269 274 273 274 279 279 279 280 281 283 285 283 282 282 282 284 284 283 283 283 283 282 282 282 282 282 281 281 281 281 281 281 281 282 283 283 283 283 284 284 285 285 284 284 285 285 286 286 286 286 286 286 286 286 286 286 285 285 285 285 285 285 284 284 284 284 284 284
283 283 285 287 287 288 289 286 282 282 284 283 285 280 276 271 264 265 266 265 269 274 278 281 280 279 281 284 284 283 282 282 282 282 284 285 284 283 283 283 282 282 282 282 282 281 281 281 281 281 281 282 282 282 283 284 284 284 284 284 284 284 284 285 285 285 285 285 285 286 286 286 286 285 285 285 285 285 285 285 284 284 284 283 283 283
277 281 284 287 285 287 290 289 288 284 284 284 283 284 281 273 265 269 266 274 275 273 277 277 275 272 278 283 279 281 281 281 281 281 283 285 284 284 283 282 282 282 281 282 281 281 281 281 281 282 282 282 282 282 283 283 283 284 284 284 284 284 284 284 284 285 285 285 285 285 286 286 286 286 285 285 285 284 284 284 283 283 283 283 283 283
283 282 285 286 285 287 288 286 285 285 284 281 281 283 280 281 279 277 270 267 266 271 271 273 277 279 283 280 280 280 280 280 281 281 282 283 282 282 282 282 281 281 281 281 281 281 281 281 281 282 282 282 282 282 283 283 283 284 284 284 284 284 284 285 284 284 284 284 285 285 285 285 285 285 285 284 284 283 283 283 283 282 282 282 282 283
282 282 284 286 285 286 287 285 287 287 284 283 283 279 281 283 281 272 269 269 270 269 274 271 278 281 282 281 279 279 280 280 281 281 282 282 282 281 281 281 281 281 281 281 281 281 281 281 281 282 282 282 282 282 283 283 283 284 284 284 284 284 284 284 284 284 284 284 284 284 284 284 284 283 283 282 282 282 283 282 282 282 282 282 282 281
282 280 285 286 287 287 285 285 284 284 285 284 278 283 283 284 282 280 276 269 266 270 274 273 278 280 280 279 280 280 280 280 280 280 281 281 281 281 282 281 281 282 282 281 281 281 281 281 282 282 282 282 282 282 282 283 283 283 284 284 283 283 283 283 284 284 284 283 283 283 283 283 283 283 282 282 282 282 281 281 281 281 281 280 280 280
287 283 284 283 285 287 285 287 287 286 286 283 282 284 287 278 279 278 274 272 269 268 270 271 275 276 280 282 280 281 280 282 280 280 280 280 280 281 282 282 281 282 281 281 281 281 281 281 282 282 282 282 282 282 282 283 283 283 283 284 284 284 284 284 284 284 284 284 283 283 282 282 282 282 282 282 281 280 280 279 280 280 279 279 279 278
287 283 283 285 285 286 286 286 282 283 286 286 286 285 285 283 279 276 279 274 273 270 266 273 271 275 280 283 283 285 283 283 280 279 280 281 282 282 282 282 282 281 281 281 281 281 281 281 282 282 282 282 282 282 283 283 283 283 283 284 284 284 284 284 284 284 283 283 282 281 281 281 281 281 280 280 279 278 278 278 278 278 278 277 277 277
285 287 279 284 286 286 283 285 284 284 283 283 284 282 284 279 284 282 279 276 277 266 268 269 275 273 278 281 283 285 285 283 282 281 282 282 283 283 284 283 283 282 282 282 281 281 281 281 282 282 282 282 283 283 283 283 283 283 284 283 283 283 283 282 282 282 281 281 280 279 279 279 279 278 278 278 278 277 277 277 277 277 277 276 275 275
286 286 281 282 283 284 284 285 287 287 288 287 286 283 286 282 281 279 279 279 273 276 275 267 276 278 281 280 282 282 281 284 283 283 283 282 283 284 284 284 284 282 282 282 282 281 281 281 282 282 282 282 283 283 283 283 283 283 283 282 282 282 282 282 282 281 280 280 279 278 278 278 278 277 277 276 277 276 276 275 275 275 275 274 274 274
291 285 283 279 283 286 286 286 284 286 287 286 286 285 287 286 285 281 278 278 273 277 274 271 269 280 282 281 281 281 280 283 283 283 283 284 284 284 285 285 284 283 283 282 282 281 282 282 282 282 282 282 283 283 283 283 283 282 282 282 282 282 282 282 281 281 279 278 277 277 277 277 276 276 275 275 275 274 274 274 274 274 273 273 273 273
292 286 281 281 282 282 285 283 284 283 286 287 286 283 285 285 285 286 285 281 279 273 273 271 273 278 283 281 280 281 281 281 283 283 283 284 284 284 284 283 282 282 283 282 281 281 282 282 282 282 282 283 283 283 282 283 282 282 282 281 281 281 280 280 280 278 277 276 276 276 276 275 275 274 274 274 274 273 273 273 272 273 272 272 272 272
287 286 285 280 278 279 280 284 283 285 285 284 283 283 285 286 284 280 279 278 278 278 279 278 276 281 283 279 282 280 281 281 281 282 282 283 282 283 284 283 283 283 282 281 281 281 281 281 281 282 283 283 283 283 282 282 281 281 280 280 280 280 279 279 278 277 276 275 275 274 274 274 274 273 273 273 273 272 272 271 271 271 271 271 270 271
289 286 285 280 277 275 273 273 276 280 284 284 281 282 283 285 283 282 280 277 278 278 278 279 281 284 282 280 282 281 280 281 282 282 282 282 283 284 285 285 284 283 282 281 281 281 281 282 282 282 283 283 283 282 281 280 280 280 279 279 279 278 278 277 277 276 275 274 274 273 273 273 273 273 273 272 272 271 271 271 270 270 270 270 269 270
288 286 286 286 283 281 282 278 282 283 281 281 281 281 281 281 283 282 278 276 279 276 278 282 283 284 283 283 282 281 280 281 282 282 283 283 283 284 285 285 283 282 282 282 281 281 282 282 282 283 283 283 282 281 281 280 279 279 278 278 278 277 277 276 275 275 274 274 273 273 273 273 272 272 272 271 271 271 270 270 269 269 268 269 268 268
286 284 286 286 285 286 279 281 284 285 283 283 283 282 281 281 281 282 281 281 282 280 279 285 280 281 282 283 284 284 284 283 283 283 283 283 284 284 284 284 285 283 283 283 282 281 282 282 282 282 282 282 281 280 280 280 279 278 278 277 277 276 275 275 274 274 273 273 273 272 272 272 272 272 271 271 270 269 269 269 268 268 268 268 267 267
285 284 287 285 285 286 283 284 284 285 285 285 285 286 284 283 282 282 283 285 284 283 281 284 283 283 285 285 286 287 288 287 286 285 284 285 284 284 284 283 283 283 283 283 282 282 281 281 281 282 282 282 281 280 279 279 278 278 277 276 275 275 275 274 273 273 273 272 272 272 272 272 271 271 270 270 269 268 267 267 267 267 266 267 266 266
286 282 284 285 286 286 284 283 282 283 281 281 282 283 285 284 282 284 284 286 285 285 286 283 284 284 288 287 286 288 287 285 284 284 283 284 284 283 283 283 283 283 283 283 282 281 281 281 281 282 282 282 280 280 279 278 278 277 276 275 274 274 274 273 273 272 272 271 271 271 271 271 270 269 269 268 267 267 266 266 266 265 265 265 265 265
288 284 287 284 282 283 280 278 280 280 280 280 283 283 283 282 282 283 284 285 283 283 283 282 282 283 286 285 285 284 280 283 283 283 283 283 283 283 282 283 283 283 282 282 281 281 281 281 282 282 282 282 280 280 279 279 278 277 276 275 274 274 273 273 272 271 271 271 271 271 270 269 268 268 267 267 266 265 265 265 264 264 264 264 264 264
287 282 281 281 280 279 277 279 279 279 279 279 280 282 282 280 279 281 279 282 281 282 282 281 279 281 282 283 284 281 281 282 283 283 282 282 282 282 282 282 282 282 282 282 282 282 281 282 282 282 282 282 281 280 280 279 278 276 275 274 273 273 272 272 271 271 270 270 270 270 269 268 267 267 266 266 265 265 264 264 263 263 263 263 263 264
285 280 278 277 278 280 275 276 277 277 278 278 280 282 283 282 283 279 282 282 284 285 282 280 281 285 282 281 282 281 280 281 281 280 281 281 280 281 281 282 282 282 282 282 282 282 282 282 282 282 282 282 281 281 280 280 278 276 275 274 273 272 271 270 270 270 269 269 269 268 267 267 266 265 265 265 264 263 263 262 262 262 262 262 263 263
282 282 279 280 278 275 271 273 276 277 273 275 283 284 285 282 282 279 280 281 282 284 282 285 284 277 277 279 280 281 280 279 280 281 281 282 280 279 279 280 281 282 282 282 282 282 282 283 283 283 283 283 282 281 281 279 278 277 275 274 272 271 270 270 269 269 268 268 267 267 266 265 264 264 264 263 263 263 262 262 261 262 262 262 262 262
281 282 281 280 278 273 273 276 275 271 274 282 276 276 278 283 283 282 283 283 281 281 281 280 278 276 279 280 282 281 279 278 277 277 278 278 279 280 279 279 279 280 281 281 281 281 282 282 282 282 281 281 281 280 279 277 277 274 272 271 270 270 269 268 268 267 267 267 266 265 265 265 264 263 263 263 262 262 261 261 261 261 262 261 262 261
281 282 278 277 276 274 272 276 270 272 280 277 276 275 276 278 277 278 276 276 277 280 282 281 282 282 281 280 279 278 278 277 275 276 278 278 279 280 280 280 281 280 279 280 281 281 281 281 281 282 282 281 279 279 278 277 274 272 271 270 270 268 268 267 267 267 266 265 265 264 265 263 263 262 262 262 261 260 261 261 261 260 261 261 261 261
284 281 281 279 281 273 275 275 276 281 279 278 274 276 277 276 275 276 273 276 277 278 279 279 280 280 279 278 277 275 274 275 276 277 277 278 278 278 280 281 281 280 280 280 280 280 280 280 280 281 280 279 279 278 277 274 272 271 269 268 268 267 267 266 266 266 266 265 265 264 265 264 263 262 261 261 261 260 260 261 260 260 260 259 260 260
282 283 284 280 278 280 274 273 272 273 272 278 279 277 278 278 278 277 277 273 274 272 277 278 279 279 276 275 274 274 274 275 274 275 276 276 276 276 277 279 278 278 278 278 278 278 278 278 278 278 278 277 277 276 274 271 271 270 269 268 266 266 266 266 266 266 265 265 264 264 264 264 262 261 261 260 259 259 261 260 260 260 259 259 259 259
282 283 281 282 279 277 275 273 273 271 275 279 277 275 276 276 277 275 271 268 273 273 277 278 278 276 276 275 273 274 273 268 271 274 277 276 276 275 276 276 277 278 277 277 278 278 277 277 277 276 275 275 274 273 271 270 269 269 268 267 266 266 266 266 266 265 265 265 264 264 263 262 261 261 260 259 261 259 259 259 259 259 259 259 258 258
278 278 280 277 277 278 276 275 272 276 273 275 272 274 275 275 277 276 263 264 269 274 273 275 277 275 274 274 274 274 274 266 272 275 276 276 277 276 276 276 276 276 275 275 276 277 277 275 274 273 274 274 275 271 269 269 269 269 269 267 266 266 266 267 266 266 265 265 264 263 262 261 261 260 259 260 259 258 258 258 258 258 258 258 258 258
277 276 278 275 278 278 279 275 276 276 279 274 274 275 275 273 273 265 267 268 271 271 273 275 276 275 274 272 274 272 276 277 277 276 275 274 275 275 275 275 275 275 275 275 275 278 274 274 275 275 275 275 272 269 269 269 269 269 268 266 266 266 268 267 265 264 264 264 262 261 261 260 259 258 258 258 258 259 258 257 258 258 257 256 256 256
270 273 274 276 274 275 277 274 275 278 281 274 272 275 275 276 265 268 272 273 275 274 273 275 276 275 275 275 276 277 278 278 276 276 274 274 275 275 275 274 274 274 274 274 275 275 274 273 273 272 272 271 269 268 268 268 269 269 267 266 266 268 266 264 264 264 263 262 262 260 259 257 257 257 256 256 256 255 256 257 256 256 256 256 256 255
273 272 271 275 276 273 274 273 273 269 277 276 277 275 276 270 271 275 274 275 275 276 274 274 275 275 276 275 276 277 276 275 275 275 275 274 274 275 274 273 274 274 274 273 273 273 273 273 273 273 272 269 268 268 268 268 269 268 266 267 269 265 264 263 263 262 262 261 259 258 257 256 255 255 254 254 254 255 255 255 254 254 254 254 254 254
274 267 261 267 276 270 273 270 271 278 276 278 280 275 275 278 277 276 277 274 275 273 275 276 275 275 276 277 277 276 275 274 273 273 273 272 273 273 273 272 273 273 272 273 274 274 273 274 273 272 269 267 267 267 268 268 269 268 266 268 265 263 262 262 262 261 260 259 258 256 256 254 254 253 253 254 254 254 253 253 253 253 253 253 254 255
276 272 271 269 273 271 270 275 277 276 278 279 281 279 280 280 276 276 276 277 276 275 274 274 277 276 275 276 276 276 274 274 275 275 274 275 274 273 273 274 274 274 274 274 273 272 272 273 272 271 267 266 265 266 266 267 269 267 266 266 263 263 261 260 259 259 258 257 256 256 254 253 252 251 252 252 253 253 254 254 252 254 253 253 254 254
273 274 272 271 271 273 274 274 274 274 276 278 279 277 277 278 275 275 276 276 276 277 276 277 276 276 275 275 274 273 274 274 274 274 273 274 274 274 273 272 272 272 272 271 270 270 271 270 268 267 267 264 264 264 265 265 267 267 267 263 262 262 261 259 258 258 257 256 254 254 252 253 253 252 252 252 253 254 254 254 254 254 254 254 254 254
271 272 271 271 271 270 267 272 274 276 275 277 279 278 276 276 276 275 275 276 276 276 276 277 276 276 275 274 275 276 275 275 275 275 274 273 273 273 273 273 274 273 273 272 273 270 268 268 268 267 267 266 264 263 263 263 264 265 262 261 261 260 259 258 258 258 257 256 255 252 252 253 254 253 253 252 252 253 253 254 253 253 254 254 254 253
270 274 271 270 270 270 269 272 273 272 273 274 276 276 277 278 276 275 277 277 276 274 275 275 274 272 272 272 275 275 276 275 274 274 274 274 274 274 273 273 273 272 272 273 271 269 267 268 270 269 267 267 266 263 263 262 262 261 260 260 260 258 258 258 258 258 257 256 254 254 253 253 255 255 254 253 253 253 253 253 253 253 254 254 254 254
273 275 265 268 271 270 272 273 272 273 273 274 274 275 277 278 277 276 276 275 274 274 273 272 274 275 274 276 275 275 275 274 274 275 274 274 273 273 273 273 273 273 273 271 269 268 270 270 269 270 268 269 267 264 262 261 261 258 259 260 258 258 258 258 257 257 254 254 253 253 254 253 254 254 254 253 252 252 254 254 253 254 254 255 256 256
272 271 271 270 267 265 268 271 273 267 266 274 275 277 277 278 277 276 274 273 273 274 274 274 274 273 274 275 274 274 273 275 274 273 273 274 274 274 274 273 273 272 271 270 269 268 269 268 269 269 269 269 265 263 262 261 260 258 260 259 257 258 259 257 256 255 255 253 254 252 253 253 253 251 253 252 253 252 252 256 260 259 257 257 262 265
275 275 273 271 272 268 272 274 276 277 276 276 277 278 278 277 276 276 276 276 276 275 275 275 275 273 272 272 272 273 274 275 275 273 273 274 274 274 275 274 273 272 272 269 267 266 267 269 268 267 267 267 264 262 262 261 260 258 258 258 258 258 258 257 257 256 255 254 254 254 254 253 253 252 252 252 252 251 252 253 255 261 265 266 266 267
Wind_Speed
1 5 6 9 11 9 5 11 10 1 3 3 3 2 4 5 6 4 3 5 0 1 7 9 6 5 10 6 4 2 2 6 5 5 4 4 5 5 5 5 4 5 5 5 5 6 7 8 7 6 6 7 7 9 8 9 10 10 7 11 12 6 6 7 7 7 7 10 9 11 12 10 8 8 7 9 10 11 10 11 10 10 9 10 10 9
3 6 9 12 4 6 9 5 2 2 2 2 2 3 5 3 9 4 2 2 2 2 4 1 1 7 9 4 4 3 2 4 2 3 3 4 4 4 4 5 5 3 2 6 7 8 7 7 9 7 7 8 11 10 9 10 9 8 8 10 6 5 8 8 7 9 9 7 8 11 8 9 7 7 8 10 10 10 9 10 9 10 11 12 11 9
3 10 11 8 4 4 3 4 2 5 4 1 3 2 2 8 4 8 3 2 1 3 7 2 3 9 6 1 4 4 4 2 2 1 1 3 4 3 3 4 4 4 4 5 5 6 7 8 9 7 7 8 8 7 8 6 8 9 9 8 8 8 9 8 6 8 9 8 7 10 8 8 10 9 9 10 9 8 10 11 11 11 10 10 9 10
3 6 15 4 6 4 2 3 4 1 1 4 2 2 9 3 0 6 1 2 1 1 2 1 5 9 1 3 4 3 2 3 3 4 5 3 4 3 3 3 3 4 4 6 6 6 7 7 7 7 8 8 7 6 6 7 9 7 8 8 8 8 8 8 8 11 10 12 11 11 10 10 10 9 8 10 8 8 12 13 10 11 10 11 11 11
9 2 0 7 6 6 4 3 4 5 7 3 5 5 6 4 5 8 4 1 1 1 1 2 5 7 1 3 1 2 2 4 3 5 5 4 4 2 2 4 4 4 4 4 5 7 7 8 9 8 7 6 7 6 7 7 7 5 7 7 8 7 7 6 7 8 7 8 9 7 8 8 8 7 7 9 10 10 9 9 11 10 9 10 10 10
7 6 3 6 3 5 4 3 7 8 7 2 6 12 8 5 7 5 2 3 6 3 2 1 4 3 2 5 5 4 1 2 2 5 3 3 4 3 4 4 3 4 3 3 4 4 5 6 7 8 8 8 6 7 7 7 7 6 6 7 8 8 7 7 7 6 5 6 6 5 6 8 9 10 9 10 8 8 9 9 7 9 10 10 10 10
6 0 5 5 5 4 5 5 4 7 4 1 6 8 11 8 4 2 2 3 1 1 1 2 2 5 6 5 5 4 3 2 2 2 1 1 2 3 3 3 3 3 3 4 4 4 6 7 7 7 7 6 6 7 6 7 8 7 7 7 8 7 7 7 7 6 7 9 9 11 10 9 8 10 7 5 5 6 6 6 9 8 9 9 10 10
2 0 3 2 4 5 3 5 5 10 6 4 1 3 4 4 6 5 5 6 3 1 3 1 1 3 5 9 3 4 5 2 1 2 2 2 2 2 2 2 2 2 2 2 3 4 4 4 4 4 4 4 5 5 6 7 7 8 7 8 8 7 8 7 7 9 8 10 9 10 11 9 8 8 8 6 6 6 6 8 8 7 9 9 9 9
5 3 4 4 3 3 7 5 5 8 7 3 1 4 6 7 6 5 6 4 1 1 6 3 1 1 4 6 2 2 3 3 6 6 6 5 4 4 3 2 2 1 1 2 4 4 3 3 3 3 4 4 5 6 7 7 7 6 7 8 9 9 8 8 10 9 9 9 9 9 8 11 7 7 7 5 5 7 6 10 7 8 8 8 9 9
2 2 7 8 7 7 4 1 8 11 6 1 5 7 7 7 6 5 5 5 1 1 5 6 4 3 6 5 2 1 4 7 9 11 8 7 7 6 5 4 3 2 2 2 2 1 2 1 2 2 2 5 5 5 5 6 6 7 7 9 11 10 8 7 9 9 10 9 7 10 9 12 8 6 6 6 7 7 6 9 8 7 8 7 8 8
0 4 4 4 6 5 5 2 2 0 1 7 4 7 5 7 4 3 5 3 3 2 7 6 1 3 4 5 7 4 5 5 5 3 4 5 6 6 6 6 5 5 4 3 3 1 1 1 2 3 4 4 5 5 5 6 6 6 7 9 12 9 7 8 9 10 10 8 7 8 9 10 10 8 7 8 8 7 8 8 8 7 7 7 8 7
1 1 0 2 4 4 4 4 3 2 4 5 2 4 4 2 5 3 3 4 1 6 4 1 3 2 7 6 4 7 1 4 10 11 12 11 11 9 8 6 6 6 5 4 4 4 4 4 4 3 5 5 5 5 6 6 6 7 7 9 12 9 8 8 8 10 9 8 9 9 9 10 8 8 7 9 9 7 8 7 8 6 7 7 7 7
3 5 2 1 3 8 3 8 3 3 1 2 5 6 6 3 4 2 2 2 5 4 0 2 3 1 7 8 3 3 7 3 5 6 13 13 12 11 9 8 7 5 6 6 5 5 5 5 6 5 5 5 5 6 5 6 6 7 8 9 12 10 8 8 8 10 9 9 8 8 8 9 7 8 9 8 8 6 7 6 7 7 7 6 7 8
5 1 1 3 2 4 7 8 4 2 3 4 7 6 5 1 1 3 5 2 6 4 3 1 1 3 3 9 4 7 5 3 3 5 6 11 14 13 11 9 7 6 6 6 6 5 6 6 5 5 5 5 5 5 6 6 6 7 8 8 12 9 7 8 9 9 10 10 8 8 7 7 7 8 7 7 8 6 6 6 7 7 6 7 7 7
1 2 6 9 4 4 8 6 11 7 10 8 2 7 7 7 6 4 5 4 3 2 2 4 1 5 5 5 3 2 4 5 5 5 5 6 6 6 7 7 7 6 6 6 6 6 7 6 6 6 5 5 5 5 5 6 6 7 8 8 11 11 7 8 9 9 10 8 8 7 7 7 6 7 7 7 6 6 7 6 7 7 6 7 6 6
5 4 2 2 1 2 10 0 4 6 6 0 3 5 5 6 5 2 3 3 1 2 2 1 5 4 5 1 3 2 2 2 3 4 6 8 6 7 7 8 8 7 7 7 7 6 6 6 5 5 5 5 5 6 5 6 6 7 8 8 9 10 8 8 9 8 8 8 7 7 8 7 7 6 7 7 6 6 6 6 7 7 7 6 5 5
3 2 2 3 3 1 1 1 0 2 6 4 5 5 5 2 8 6 1 1 1 2 8 3 5 5 2 1 1 2 1 2 2 3 6 8 8 8 8 8 8 8 8 8 7 7 7 6 5 5 5 5 5 5 6 6 6 8 8 9 9 8 7 7 8 8 8 8 8 8 7 7 7 7 8 7 7 7 6 6 6 7 7 6 7 6
6 3 1 3 2 1 0 0 2 5 3 9 2 7 1 1 3 4 3 1 3 3 7 3 8 3 4 6 1 0 3 4 4 5 6 7 8 10 10 10 10 10 9 8 7 7 7 6 7 6 5 6 6 6 7 7 6 6 6 8 10 9 10 7 8 8 7 8 8 7 7 7 6 6 7 6 7 6 7 7 6 6 6 7 5 4
3 1 1 2 0 2 1 1 5 2 3 3 2 3 4 2 1 2 3 3 1 4 6 5 2 5 7 6 2 7 8 10 8 7 8 10 11 13 11 11 10 9 8 9 9 8 7 7 7 7 7 6 6 6 6 6 6 6 6 6 8 10 8 8 7 7 7 6 5 5 6 7 6 6 7 7 7 7 8 7 6 6 6 6 6 5
1 4 1 1 2 1 0 2 7 2 2 2 2 3 1 1 1 4 5 3 5 5 3 6 4 7 8 6 14 12 15 11 10 9 13 17 16 14 13 13 14 13 11 10 10 9 9 8 8 8 8 8 8 8 7 6 5 7 6 7 7 6 7 8 8 7 8 6 6 6 6 6 6 6 7 7 6 7 7 7 6 5 5 5 4 4
2 0 3 0 2 2 2 3 6 9 7 1 1 1 0 1 1 3 1 3 2 3 3 3 10 2 6 5 9 11 13 15 17 17 15 13 13 14 15 16 15 14 12 11 10 10 10 9 8 7 7 6 5 5 5 6 7 7 6 7 7 9 8 8 7 8 7 6 6 7 7 6 6 7 6 7 7 7 6 5 5 5 4 3 4 4
3 1 5 2 2 3 4 1 1 4 4 7 10 9 10 6 3 2 7 4 1 2 6 3 13 1 3 2 5 3 3 11 16 14 14 13 15 17 15 15 12 12 12 11 10 10 9 8 8 7 6 5 6 6 7 6 6 6 7 6 7 7 7 9 7 7 6 5 5 7 7 7 6 6 6 7 6 7 6 5 5 4 4 5 5 5
3 2 5 3 5 6 2 0 1 1 0 1 4 6 7 5 4 4 8 4 2 3 4 2 2 10 1 1 2 3 3 6 8 8 10 14 17 17 15 11 9 9 10 11 10 9 9 9 9 9 10 9 9 8 8 7 7 7 7 7 6 8 7 7 8 6 6 6 6 7 6 6 6 6 7 7 6 6 6 5 5 5 5 5 5 5
4 2 1 2 3 3 2 1 1 0 1 1 2 2 3 6 6 7 5 4 6 1 1 1 4 5 1 1 4 4 3 3 6 9 10 8 8 8 8 8 9 9 9 7 7 7 9 9 8 8 9 9 8 9 8 7 7 7 7 7 7 9 8 7 7 6 6 6 7 7 7 6 6 6 6 6 5 6 6 5 5 5 5 5 4 5
4 3 6 2 1 1 3 1 1 1 1 3 2 2 3 1 2 2 5 2 1 8 7 6 15 5 1 3 1 3 1 3 5 4 3 6 4 6 8 8 8 8 7 8 10 10 9 9 11 11 9 9 9 8 8 8 8 7 7 7 8 8 7 7 6 6 6 7 8 6 6 6 5 5 6 6 6 6 6 5 5 5 5 5 4 4
1 2 6 5 8 7 5 5 5 7 8 2 1 1 3 8 7 4 6 2 8 2 8 7 13 2 2 2 2 2 3 2 2 4 3 3 4 7 9 11 10 9 10 9 9 9 13 12 9 9 10 9 10 9 9 8 8 8 8 7 7 9 7 6 5 5 6 6 7 6 6 5 5 6 7 6 6 6 5 5 5 4 4 4 4 4
2 1 4 7 8 10 8 4 2 3 4 4 3 5 5 3 3 3 3 3 11 2 7 10 10 7 3 0 3 4 1 4 3 3 6 7 8 8 8 7 7 8 9 11 12 10 8 9 13 12 11 11 10 9 9 9 9 8 8 8 7 7 7 6 6 6 6 6 6 6 5 5 5 5 5 5 5 4 4 4 4 4 4 4 3 4
3 2 9 10 11 9 4 4 3 3 3 4 5 4 5 6 8 10 10 9 4 1 13 6 4 6 4 4 5 4 3 5 4 4 5 7 8 8 6 4 5 6 7 8 8 11 16 15 11 11 12 11 10 9 8 8 9 10 9 10 7 7 6 5 6 6 6 6 5 6 5 5 5 5 5 5 5 5 4 4 4 3 3 3 4 3
5 6 5 7 12 7 3 3 4 2 2 3 6 7 8 10 10 13 12 11 7 9 16 5 4 2 4 7 5 6 8 8 8 8 9 6 3 4 5 7 9 12 12 13 15 14 12 11 12 12 12 12 10 11 10 9 8 7 7 7 7 6 6 6 6 6 5 5 6 5 5 5 5 5 5 5 5 4 3 3 3 3 3 3 3 3
3 4 2 4 10 7 3 4 3 5 3 2 6 10 12 10 14 13 13 14 16 15 8 2 4 8 10 5 9 9 4 4 2 2 3 4 5 6 6 8 9 10 11 13 12 12 11 10 10 12 13 11 12 11 11 11 10 9 9 8 6 6 5 6 5 6 5 6 6 5 5 5 5 5 5 5 4 4 2 2 3 2 3 3 3 3
4 3 7 2 2 4 1 3 2 3 4 7 10 12 14 6 5 12 13 9 3 4 1 4 6 14 4 5 6 3 3 2 2 2 5 4 4 6 7 8 9 10 10 9 6 8 10 11 11 11 12 13 12 13 13 13 11 9 9 8 7 6 6 5 6 5 6 6 5 5 5 5 5 5 5 4 4 2 2 3 2 2 3 3 3 4
4 3 3 2 3 2 1 4 3 2 1 6 14 18 9 6 11 9 7 6 5 9 6 5 9 13 2 7 3 1 1 3 6 5 3 5 6 6 7 8 9 10 9 10 10 10 11 13 13 13 14 13 13 13 12 12 10 10 10 8 7 6 5 6 6 7 6 6 5 5 5 5 5 5 4 4 3 2 2 2 2 2 3 3 3 3
5 5 5 3 3 5 1 3 4 3 1 8 19 20 12 14 10 3 4 6 12 10 10 11 13 5 5 6 6 5 6 7 4 4 6 5 4 6 8 9 9 8 8 9 11 12 12 13 14 15 15 14 13 13 15 13 11 11 11 9 7 7 8 7 7 7 6 5 5 5 5 5 5 3 3 3 3 2 1 1 2 2 2 3 3 3
4 7 4 4 3 1 2 1 2 3 10 18 4 2 12 12 13 9 9 11 8 9 7 7 6 2 4 5 8 8 8 7 7 7 3 5 5 6 6 7 8 9 8 9 10 11 11 10 10 11 13 15 16 16 12 11 12 10 9 10 9 10 8 8 7 8 7 6 5 5 5 6 5 3 3 3 3 2 1 1 1 1 2 2 2 3
8 6 5 3 4 3 2 4 3 12 18 2 3 6 1 8 11 16 14 8 9 8 6 5 3 7 9 9 10 5 4 4 1 2 3 6 4 5 6 8 9 9 10 8 8 9 10 11 11 11 9 11 11 8 9 8 8 10 10 10 10 8 9 7 8 7 6 7 5 5 4 5 4 3 3 3 3 2 1 1 1 2 2 1 3 3
7 7 3 1 5 4 3 7 8 13 2 2 4 4 1 6 2 3 3 6 7 11 13 11 10 10 9 8 3 2 3 2 1 5 8 7 8 8 7 8 8 6 6 8 9 10 10 10 12 13 12 6 8 9 10 11 9 11 10 8 9 9 8 7 7 7 7 5 5 5 6 5 4 4 4 4 3 3 1 1 1 2 2 1 2 2
9 4 5 6 5 7 6 10 14 4 7 3 2 2 6 6 6 8 7 8 10 11 9 8 11 11 7 2 3 2 1 1 2 6 6 11 9 7 8 8 7 7 6 5 4 6 5 6 7 7 6 8 10 10 10 9 9 10 10 9 7 8 8 7 7 9 8 6 7 6 6 5 5 5 4 4 3 2 2 2 2 2 1 2 3 3
2 10 6 7 6 9 6 5 2 5 12 12 4 2 1 2 5 4 4 7 2 3 8 10 12 12 3 2 4 3 3 2 6 4 3 6 6 7 5 7 5 4 4 3 1 2 3 4 4 6 9 9 8 8 8 9 10 10 10 10 8 9 8 7 8 9 8 8 6 7 7 5 5 5 5 4 3 2 2 1 2 2 1 3 3 4
3 2 0 10 5 6 8 9 8 9 8 3 4 3 1 3 9 5 3 7 4 8 12 11 9 6 6 7 4 5 4 2 7 6 6 4 5 5 6 7 7 6 5 5 5 5 6 5 6 6 6 8 9 9 10 10 11 11 11 10 10 9 9 10 9 10 10 8 7 7 6 5 5 5 5 4 3 2 2 2 2 2 2 2 2 4
2 2 4 3 6 7 8 8 8 3 5 1 3 2 4 4 5 5 2 8 3 9 5 7 10 7 5 6 8 7 8 5 7 7 4 7 7 8 9 8 7 7 6 5 4 3 5 6 8 6 8 11 12 10 12 10 11 10 11 10 9 9 10 11 10 8 7 7 7 5 5 5 5 5 4 4 2 2 2 1 1 2 2 2 2 3
3 1 4 11 9 9 10 5 1 5 1 2 7 5 4 2 6 4 10 6 3 5 5 7 8 7 8 8 8 7 10 8 6 3 2 1 2 3 4 3 4 4 6 5 5 5 6 7 9 11 12 9 9 10 11 10 10 11 9 10 10 12 12 8 7 8 8 8 7 5 6 4 5 5 4 3 2 2 1 1 2 2 2 3 2 3
1 2 3 0 6 7 5 5 6 5 4 8 1 5 5 5 2 8 5 4 10 8 9 9 9 6 9 12 10 8 7 6 2 1 2 3 3 1 2 3 2 1 0 2 6 7 6 6 5 5 4 6 10 11 10 10 11 9 10 9 12 12 7 8 9 8 7 7 6 6 6 6 4 4 4 3 3 2 2 2 2 2 3 2 3 4
8 7 6 8 2 3 1 6 5 10 2 9 11 3 2 4 7 5 2 1 4 7 10 9 8 7 10 8 9 9 5 1 4 5 4 3 3 5 3 4 5 5 5 4 4 5 8 7 8 10 10 8 10 10 9 11 11 10 9 12 13 7 9 9 8 8 7 7 7 7 6 6 5 4 4 2 3 3 3 2 2 3 2 3 3 4
4 5 3 3 5 6 7 9 9 3 7 12 15 8 7 9 5 5 7 4 3 4 8 8 8 8 9 9 10 8 7 5 3 4 4 4 6 5 2 4 4 4 4 5 5 9 9 10 8 8 6 7 8 9 9 13 13 11 12 15 7 8 7 8 7 8 7 7 7 7 6 5 4 3 3 3 3 3 3 3 3 3 3 2 3 4
8 9 6 6 4 8 8 6 0 2 12 11 7 4 8 7 5 8 5 7 7 6 4 4 8 6 10 10 8 9 6 5 7 5 5 7 5 5 7 8 8 8 9 9 9 7 7 10 9 8 6 7 9 9 10 10 13 12 14 8 9 9 10 9 8 8 8 7 7 6 5 3 3 2 2 2 3 3 3 3 2 3 3 2 3 3
3 2 2 3 5 2 2 3 1 1 3 9 6 2 3 3 2 4 6 4 5 6 9 9 7 8 9 7 7 3 6 6 7 6 5 7 6 6 4 4 5 6 6 4 4 7 9 6 4 6 8 6 7 9 8 10 9 15 13 8 9 9 9 10 10 8 8 7 6 7 4 4 2 2 3 3 3 3 3 3 3 3 3 2 3 3
3 2 1 3 3 2 6 2 5 6 4 7 11 5 1 1 5 4 4 5 5 5 7 7 5 6 7 8 10 9 9 8 7 7 6 6 7 7 7 8 8 8 9 10 11 7 6 7 7 9 10 11 9 10 9 10 9 7 5 10 9 9 9 10 9 8 7 7 6 4 5 4 3 2 2 2 3 3 3 3 3 3 3 3 3 4
4 4 3 4 1 4 6 3 2 3 3 3 4 5 6 8 5 5 6 3 1 3 5 6 2 2 6 6 10 10 11 8 8 8 7 8 9 8 8 8 9 6 8 9 5 7 6 8 11 11 11 12 11 10 10 9 10 6 7 7 10 9 9 9 9 9 8 8 6 5 5 5 4 4 3 3 3 3 3 3 3 4 6 5 4 4
4 6 4 4 6 3 1 1 1 4 4 4 5 6 8 7 4 4 6 5 2 3 4 4 6 7 8 10 10 10 9 8 9 10 9 8 7 6 8 10 9 10 8 7 8 10 12 12 13 13 13 14 9 10 10 10 8 7 9 9 9 11 11 9 7 6 5 5 5 5 4 4 4 4 4 3 3 4 4 4 4 5 6 6 5 6
5 6 2 3 1 4 7 5 6 4 3 7 8 11 11 11 6 5 1 3 5 7 7 7 7 6 8 7 7 8 9 10 9 7 9 9 9 9 8 9 8 9 8 7 6 9 9 9 11 11 12 10 7 9 10 10 8 7 7 8 9 10 11 9 8 6 6 6 5 4 4 4 4 3 4 4 4 3 4 7 11 9 7 6 10 15
9 10 7 7 9 5 4 9 11 9 7 7 8 10 10 7 6 7 9 9 9 9 8 7 8 6 7 9 6 9 11 11 11 8 9 8 10 10 10 9 9 8 9 6 7 7 11 12 10 9 9 9 8 9 10 10 9 9 8 9 9 10 9 9 8 6 5 6 6 6 6 4 4 3 4 3 3 3 3 5 7 10 14 14 12 13
Wind_Direction
112 138 178 202 222 202 191 200 209 148 136 112 110 124 208 217 277 281 265 255 342 357 236 245 261 257 266 284 312 315 26 63 58 61 59 46 51 49 41 41 27 37 20 327 338 356 359 1 359 355 2 9 24 27 17 37 39 40 39 63 54 29 31 59 71 58 61 73 77 58 58 69 64 57 55 56 53 51 44 41 39 43 47 45 41 29
74 176 227 223 208 163 201 203 116 82 87 184 187 200 265 172 252 246 254 23 303 162 298 81 350 268 258 307 337 342 70 42 29 74 59 62 64 52 54 41 25 354 319 0 13 4 4 5 5 6 16 11 27 12 10 34 34 42 40 56 56 45 52 46 57 83 73 66 68 87 75 82 66 53 54 59 50 51 51 47 41 46 45 46 43 34
165 205 228 223 117 102 74 148 153 183 209 98 204 217 282 256 258 285 284 353 297 138 263 20 298 272 272 341 20 46 66 61 18 86 80 105 65 61 47 44 33 31 20 12 14 4 8 5 10 18 16 18 21 7 15 14 40 40 46 48 54 49 58 52 54 73 80 76 73 87 94 90 86 62 65 69 65 59 62 51 44 44 44 47 48 44
226 277 243 182 135 124 52 97 132 112 104 189 145 162 236 204 66 294 301 6 34 140 271 19 315 282 350 62 55 20 81 101 62 68 63 57 86 75 63 48 42 41 17 23 6 3 2 9 16 19 20 11 11 11 8 18 37 41 43 44 54 55 57 65 63 78 79 84 84 79 88 80 78 86 80 79 68 59 53 47 43 43 42 44 48 41
196 202 358 141 153 154 191 138 134 160 236 238 192 213 242 202 221 196 248 297 321 34 68 271 296 289 252 204 198 49 73 81 29 49 50 37 40 44 76 59 42 44 24 19 11 9 10 16 18 15 10 6 22 10 14 20 31 42 44 50 58 61 57 59 64 81 96 103 91 95 87 83 88 71 63 63 49 46 54 56 41 37 36 42 48 46
292 249 112 86 111 166 170 184 210 174 236 297 224 209 222 199 225 251 341 356 5 335 348 85 322 308 295 263 214 201 291 47 358 73 37 35 27 29 45 40 34 37 31 34 15 7 6 20 8 18 13 21 11 14 8 15 30 43 53 60 65 67 58 55 54 58 79 69 85 87 77 69 63 58 43 47 54 48 45 55 57 47 41 42 46 43
201 69 166 179 157 152 176 205 236 165 191 134 268 203 216 213 196 171 148 101 274 184 346 38 167 265 330 316 211 174 167 63 21 43 65 26 30 39 45 28 30 24 26 24 28 16 32 17 28 20 20 1 17 9 6 24 31 40 54 63 65 68 68 62 68 73 88 83 79 78 80 84 79 93 69 70 60 68 67 67 58 56 48 42 47 45
124 22 89 84 132 147 142 242 234 154 136 234 246 146 157 157 183 201 156 177 220 256 297 44 129 209 319 291 57 152 157 154 128 260 246 207 203 98 67 38 41 46 25 45 38 40 31 32 24 34 356 357 7 4 24 44 38 47 52 64 67 67 68 62 73 71 68 86 85 90 88 81 83 77 95 81 76 69 69 65 54 53 49 43 40 42
154 175 165 154 147 140 205 208 173 162 146 220 214 142 154 170 181 140 149 167 201 61 282 315 219 285 250 263 22 142 218 239 240 226 212 197 201 188 173 168 138 182 29 50 83 60 35 26 20 15 29 0 26 21 39 41 45 49 60 67 69 65 66 61 63 73 68 76 87 89 97 92 78 87 88 86 71 71 62 70 56 54 49 47 42 38
292 173 205 161 143 207 211 252 166 164 187 246 121 90 82 77 70 119 110 125 315 106 258 252 186 217 273 273 318 21 244 265 216 207 191 197 190 188 185 184 176 150 85 73 47 31 19 335 2 346 26 44 28 30 44 51 59 61 69 72 67 61 58 64 70 74 75 74 83 89 87 96 99 95 93 81 71 64 54 65 58 55 54 49 47 41
254 312 169 120 191 197 131 52 141 121 87 127 112 76 35 39 38 36 64 88 72 251 239 225 259 175 293 253 215 148 221 203 121 92 156 201 207 206 197 181 171 161 149 144 160 102 320 331 3 33 66 57 54 42 59 67 65 72 78 83 74 64 69 69 74 78 76 77 73 84 88 92 99 95 92 85 70 66 58 61 55 53 56 55 52 46
47 19 184 251 94 102 98 79 29 101 116 122 127 127 86 5 10 30 341 29 153 266 264 253 202 146 172 283 272 231 281 183 164 171 177 189 196 192 186 188 183 171 164 166 161 166 126 95 76 68 89 77 72 69 69 71 72 78 81 89 87 72 71 71 80 84 81 83 80 80 82 83 81 86 83 80 79 68 70 63 64 58 58 52 52 48
263 213 230 31 233 129 113 89 12 45 58 87 86 84 122 241 38 300 13 249 214 210 245 344 139 82 240 231 171 189 202 204 217 188 181 180 184 185 185 185 179 173 174 180 178 164 171 150 143 132 127 104 95 96 91 88 89 89 87 89 94 79 73 76 80 84 85 83 79 82 84 84 84 78 78 78 77 65 69 66 64 56 55 46 45 37
268 295 164 200 77 232 144 135 162 83 189 124 160 148 105 101 59 255 270 271 310 287 273 309 155 279 257 287 221 182 204 196 216 230 202 187 180 181 180 172 173 181 186 186 181 182 173 169 162 159 141 131 128 111 106 104 99 101 98 97 94 92 79 86 85 85 87 79 78 75 80 82 83 80 78 75 78 71 68 69 69 64 60 60 54 45
197 300 238 152 230 167 186 178 177 161 164 200 109 149 179 143 157 223 186 216 228 196 280 283 59 231 138 235 342 254 275 282 257 232 220 204 193 169 156 155 165 178 193 189 188 191 183 181 175 165 156 150 142 135 119 115 110 107 104 106 104 105 92 92 90 90 87 85 79 76 76 79 83 88 83 77 73 74 77 72 77 69 63 61 54 50
216 231 282 334 277 147 180 301 114 96 55 45 165 85 98 228 144 224 199 157 215 338 335 218 215 191 188 177 288 302 312 321 330 213 184 184 168 150 158 173 177 182 194 194 194 196 199 191 184 169 163 163 154 145 139 127 129 119 118 115 110 111 114 100 96 86 90 87 84 79 80 76 78 82 84 84 77 73 72 76 76 75 68 61 57 53
43 274 335 331 41 84 179 136 345 146 193 203 111 194 208 133 102 99 77 67 72 52 252 157 300 294 308 333 35 327 51 309 343 174 174 174 171 168 181 180 185 194 196 194 191 192 192 192 192 183 176 172 172 162 155 152 145 138 134 129 118 110 102 98 93 95 91 91 89 79 79 83 85 85 86 89 84 79 73 72 68 70 66 57 47 41
140 234 329 76 183 341 294 242 96 29 142 99 180 230 166 151 124 131 225 22 64 206 271 109 213 226 102 262 65 11 254 254 244 184 190 178 171 186 193 189 194 197 196 192 194 192 191 187 183 186 191 191 184 174 163 157 157 147 141 136 127 124 118 116 111 104 102 99 93 94 86 79 82 88 87 84 82 71 69 60 58 60 60 53 47 47
118 267 341 328 113 324 7 111 45 360 47 147 196 202 121 212 184 315 84 280 244 262 273 285 306 266 189 229 107 238 211 219 202 195 181 191 193 198 195 199 201 201 194 192 195 192 191 192 191 187 189 193 193 188 177 162 156 146 138 133 127 127 125 125 115 107 98 97 98 91 86 84 79 74 76 74 74 72 71 65 59 60 61 53 42 39
53 162 278 325 131 195 37 108 184 196 344 53 79 70 325 113 155 125 194 177 113 269 43 286 108 247 199 219 186 207 202 190 170 188 207 203 195 188 193 196 196 199 195 190 192 191 189 192 191 186 185 189 188 185 185 172 153 154 149 133 121 108 109 110 111 112 105 99 98 93 86 73 74 72 78 78 82 78 76 74 71 71 70 63 54 50
125 119 202 273 280 113 165 181 210 165 157 79 99 232 114 4 226 101 22 130 184 193 201 286 296 270 252 218 182 200 190 182 177 194 203 198 195 198 198 197 197 193 190 192 190 186 185 186 188 190 192 195 191 183 174 172 167 162 148 137 138 132 127 116 116 110 108 109 102 101 97 100 92 90 90 93 89 89 85 83 77 70 75 74 57 45
92 113 175 156 151 215 232 240 185 181 193 175 165 191 177 138 137 168 254 67 97 161 247 142 265 192 267 138 230 239 226 181 199 188 185 187 193 198 201 203 195 192 194 188 185 182 182 181 183 189 192 192 179 182 181 184 161 155 153 143 134 128 130 130 129 123 125 114 114 111 109 102 99 101 100 95 88 82 79 69 62 63 62 60 44 40
143 136 97 188 199 200 226 29 292 283 156 181 181 219 186 191 125 148 232 223 36 252 97 180 325 271 237 201 277 253 227 220 199 177 191 194 196 199 204 198 190 190 189 190 184 179 176 180 186 189 188 186 184 186 184 176 173 165 153 148 151 138 143 136 134 125 128 126 121 111 104 105 101 100 96 95 92 91 86 80 71 58 57 50 42 36
99 109 90 296 312 326 348 340 338 28 126 331 278 86 121 200 188 210 210 172 180 164 120 333 249 273 306 4 292 279 264 275 204 200 199 196 205 208 190 180 183 183 192 181 170 172 184 186 184 181 187 185 186 191 186 180 166 156 156 154 147 140 142 140 136 138 135 127 108 107 107 103 112 116 116 100 94 87 75 69 62 52 50 44 35 37
125 240 132 158 52 337 343 347 8 357 27 210 189 200 216 146 75 106 90 67 272 212 177 145 252 248 256 344 309 357 41 231 224 222 178 201 200 189 191 190 191 193 172 176 185 187 184 188 189 192 187 185 189 187 181 174 169 165 161 156 151 145 147 139 145 145 137 121 115 111 112 126 133 114 97 90 83 76 69 60 56 47 44 38 29 30
109 176 137 176 204 212 218 177 224 226 212 195 140 311 238 185 157 135 228 162 228 216 136 214 251 258 312 306 301 334 325 299 264 212 215 201 186 189 202 202 196 181 189 183 183 187 198 196 191 186 187 189 190 186 178 174 171 164 157 166 162 150 148 150 152 148 128 121 117 127 134 129 110 93 91 90 84 77 69 63 54 47 40 39 22 25
175 170 188 207 206 234 226 197 239 111 78 176 221 174 208 191 193 164 97 156 221 164 201 231 237 262 242 68 263 272 268 248 243 192 194 205 212 214 211 204 187 187 187 189 194 198 189 194 197 193 189 191 188 184 179 170 167 165 161 163 171 160 149 152 147 136 123 128 135 133 117 107 100 101 97 91 85 79 69 59 52 43 36 27 18 23
112 192 220 219 227 229 145 177 185 147 157 217 174 237 200 169 167 176 191 225 114 156 258 241 132 205 249 227 237 258 265 258 244 214 222 224 218 209 201 173 157 173 198 199 196 195 201 201 191 189 191 189 190 180 173 169 172 171 172 169 167 159 153 152 140 133 136 145 130 111 113 111 112 102 94 90 86 76 68 61 48 39 22 26 16 18
150 218 217 181 242 227 163 180 155 133 220 193 197 215 208 200 170 190 211 217 161 218 244 213 176 193 247 194 209 208 199 205 203 210 210 204 184 168 169 180 192 199 199 200 207 204 198 192 191 190 193 196 182 179 175 169 172 173 166 152 155 155 162 149 137 143 149 130 113 120 126 123 108 102 96 91 88 77 62 55 44 25 18 23 12 7
99 245 245 189 233 247 201 163 156 193 222 227 231 227 228 204 202 200 210 214 208 225 239 126 193 225 234 212 199 213 190 194 182 127 127 168 194 180 188 203 207 213 211 211 208 200 194 192 190 197 197 193 187 182 174 177 178 175 169 166 163 161 157 143 154 149 135 119 124 129 126 120 110 106 104 97 92 81 63 59 35 20 16 14 3 353
134 255 143 177 200 252 104 77 109 198 197 246 251 242 234 226 208 211 218 222 220 289 235 177 229 255 237 156 213 213 161 106 85 175 194 199 182 185 196 209 215 216 217 216 202 198 196 196 199 198 200 197 190 187 181 178 169 170 173 163 159 164 158 152 151 143 129 126 130 137 140 123 113 108 104 100 94 87 64 42 17 14 5 3 352 346
182 237 58 152 181 265 148 166 159 94 137 231 259 251 223 172 224 207 196 192 168 210 213 213 234 249 228 202 220 325 106 172 212 220 191 221 209 197 198 213 218 221 216 206 201 198 200 201 199 198 201 200 196 189 182 178 182 173 173 161 167 158 145 151 150 137 126 126 146 155 136 122 114 107 108 110 98 88 63 37 10 360 359 344 342 340
184 147 150 171 178 232 42 134 158 112 286 279 249 246 218 213 212 87 220 191 203 195 214 224 244 238 203 174 168 220 198 224 243 242 231 247 214 193 205 215 220 224 216 210 209 209 208 204 203 201 199 196 195 193 198 186 173 181 166 162 159 133 150 151 147 131 127 147 163 146 127 117 112 115 128 120 117 98 76 68 351 339 332 326 318 316
144 165 174 172 186 114 360 99 128 169 232 238 289 140 180 202 197 181 211 204 209 179 206 209 234 144 134 160 186 214 201 212 208 231 202 196 205 206 223 225 226 222 219 217 213 212 213 209 209 208 203 200 199 198 189 178 178 166 143 137 135 151 152 146 140 129 142 164 161 142 127 117 112 130 150 140 124 125 109 137 283 290 291 285 304 305
171 179 184 169 159 197 148 109 190 215 236 273 345 325 243 186 175 200 219 206 199 218 243 276 249 197 207 196 208 215 204 235 227 180 229 228 197 198 205 218 222 221 220 215 217 219 213 209 209 208 206 208 197 172 152 164 156 139 134 145 149 157 146 150 139 138 162 169 155 141 127 124 129 149 165 155 140 134 164 200 250 270 275 271 288 293
174 163 138 182 124 57 119 190 218 234 266 18 343 345 331 86 100 125 297 261 211 203 205 220 238 233 225 226 222 186 189 230 299 242 231 237 199 200 211 230 235 219 222 216 208 216 208 207 206 204 208 181 153 166 171 170 154 148 154 150 153 150 154 150 149 155 164 165 166 149 137 131 142 163 177 158 142 139 174 217 241 256 273 268 270 256
167 142 172 213 164 189 188 198 230 354 321 227 43 238 170 155 171 160 223 254 207 202 180 198 234 243 235 202 170 166 157 133 279 278 230 222 221 217 211 228 226 233 229 246 205 231 216 210 207 201 163 163 172 166 174 153 150 145 142 152 157 156 157 153 160 174 176 178 169 154 144 148 153 175 179 155 143 159 199 219 241 246 240 255 269 280
200 191 192 193 221 168 167 232 294 261 246 244 197 233 105 150 135 156 141 268 283 208 181 182 220 236 192 149 131 151 133 61 303 282 257 228 223 222 239 250 266 260 251 254 231 216 193 183 166 165 162 162 164 161 141 145 148 147 151 159 161 162 165 168 184 179 179 180 170 151 147 152 159 179 176 154 160 181 211 216 249 242 231 270 285 286
22 89 96 207 208 147 199 212 210 214 244 130 191 171 203 158 124 106 75 273 261 192 203 186 215 226 190 161 165 138 99 172 252 241 253 222 225 210 211 234 236 242 237 221 208 199 186 167 150 140 132 144 158 162 149 150 150 152 165 168 172 172 171 189 189 182 182 176 158 145 143 152 169 181 170 158 172 173 208 238 242 256 260 252 258 270
95 108 148 164 214 210 187 218 219 224 245 271 162 176 182 149 111 77 322 273 254 204 183 174 206 207 180 165 144 146 149 190 247 254 223 203 198 197 191 212 219 229 236 223 234 195 154 131 116 131 153 175 181 156 157 154 161 170 172 177 165 177 194 197 192 178 147 139 140 135 146 162 175 182 159 160 159 181 211 235 237 252 270 275 274 282
178 245 203 209 215 218 218 248 319 280 255 142 162 149 170 140 82 101 222 229 226 196 203 189 210 197 157 149 164 161 225 189 195 206 198 171 156 215 234 237 218 198 205 200 199 142 147 168 168 177 186 182 156 157 161 162 163 179 177 166 174 201 203 178 151 148 147 136 135 149 161 169 178 167 154 151 171 189 213 222 249 267 264 272 281 280
342 111 326 258 230 224 244 241 244 276 216 152 297 153 175 97 190 206 237 193 150 200 208 196 199 183 166 172 186 204 218 215 170 157 167 185 196 224 221 210 169 99 74 170 167 157 159 171 182 173 172 170 161 164 166 167 176 178 170 172 202 206 147 146 151 144 143 149 154 161 165 168 178 158 153 153 148 172 229 233 223 251 254 260 275 285
186 137 208 200 191 59 168 245 244 240 184 122 123 42 302 137 238 191 151 263 197 175 171 208 204 197 173 199 210 210 229 237 195 222 228 222 226 247 214 176 191 200 186 151 175 194 165 174 192 200 191 168 166 166 173 171 179 181 176 196 206 148 146 150 147 146 150 152 160 168 172 178 169 154 142 156 175 183 225 234 236 251 243 250 270 277
209 108 249 263 192 170 191 207 212 228 123 166 140 180 209 200 186 157 135 195 192 166 184 183 218 198 192 190 199 225 233 236 295 254 253 256 241 255 236 222 220 217 217 220 203 187 183 194 198 191 175 172 171 175 174 178 183 185 188 209 144 142 143 148 145 147 151 164 171 171 178 179 163 150 154 169 178 188 217 245 245 250 242 244 249 273
216 188 180 181 213 157 200 212 198 162 157 195 186 184 199 190 156 176 148 170 171 229 184 182 208 195 196 200 206 198 204 216 220 220 197 237 230 220 220 218 205 208 211 206 211 195 195 199 195 183 180 185 182 186 187 190 187 183 202 189 145 157 156 151 150 151 166 174 179 180 180 160 155 157 173 193 178 201 216 247 226 251 249 242 263 263
325 138 181 85 262 271 278 172 136 24 213 203 244 202 194 188 197 147 164 157 225 189 167 187 208 194 199 202 186 227 205 216 208 235 224 239 233 238 229 241 234 226 223 208 204 192 200 197 166 172 192 202 197 197 195 199 188 190 205 150 161 157 155 151 153 166 178 182 180 187 165 159 179 186 203 210 196 201 212 213 229 236 263 245 250 248
244 138 102 186 272 109 261 66 160 192 205 207 217 220 166 211 204 181 183 202 202 170 193 221 201 194 195 177 193 203 217 217 214 227 221 229 233 234 225 223 233 213 203 204 214 174 175 181 185 196 196 207 204 200 202 200 213 205 133 166 159 157 151 154 162 169 177 185 186 171 164 163 198 210 219 216 219 211 213 215 210 228 254 242 247 254
307 174 117 228 130 174 240 214 222 334 267 252 244 233 244 241 211 210 217 221 134 164 184 205 150 157 141 178 205 206 227 218 197 222 219 218 222 223 224 226 233 235 225 217 195 176 177 187 202 204 200 214 205 196 198 201 206 186 162 159 161 152 150 157 170 175 186 188 177 178 175 182 192 198 216 217 189 220 234 238 217 215 230 223 223 222
178 115 213 185 184 256 42 4 357 351 339 279 236 235 239 241 205 215 223 232 184 178 209 209 200 191 178 208 200 204 220 232 207 213 212 218 220 224 226 226 227 227 224 198 199 180 192 199 204 210 203 217 194 183 191 200 193 176 175 166 159 157 156 166 172 174 175 174 165 189 181 185 196 199 205 234 234 233 218 217 223 226 242 235 218 227
96 217 194 91 246 230 187 204 154 124 253 249 228 226 232 232 208 225 216 225 209 211 213 211 232 220 211 219 195 192 208 232 224 210 224 225 219 220 224 230 232 229 230 216 187 195 208 210 211 215 216 220 177 181 191 193 188 182 180 163 163 161 162 164 163 171 188 177 185 186 185 194 199 201 202 214 229 250 277 242 239 233 229 248 245 246
187 210 144 189 213 236 208 184 190 191 213 216 204 219 221 221 182 207 224 227 229 219 206 197 228 235 233 239 208 195 216 223 231 201 222 238 236 225 220 220 226 229 230 198 179 201 206 215 213 218 225 216 180 188 190 190 184 180 181 170 170 169 164 158 165 179 184 181 198 193 189 188 196 201 200 208 211 235 258 313 296 281 273 273 274 271